Hourly Weather Porto Alegre

Today, 29 September, Tuesday

Time Temperature Precipitation Wind Pressure Humidity
00:00 +16°C° 0 mm 1 mps 759 mmHg 77%
01:00 +15°C° 0 mm 1 mps 759 mmHg 79%
02:00 +15°C° 0 mm 1 mps 759 mmHg 80%
03:00 +15°C° 0 mm 1 mps 759 mmHg 80%
04:00 +13°C° 0 mm 0 mps 759 mmHg 81%
05:00 +13°C° 0 mm 0 mps 759 mmHg 82%
06:00 +13°C° 0 mm 0 mps 759 mmHg 82%
07:00 +15°C° 0 mm 0 mps 760 mmHg 76%
08:00 +18°C° 0 mm 1 mps 760 mmHg 69%
09:00 +19°C° 0 mm 2 mps 760 mmHg 60%
10:00 +20°C° 0 mm 2 mps 760 mmHg 56%
11:00 +22°C° 0 mm 3 mps 759 mmHg 51%
12:00 +24°C° 0 mm 3 mps 759 mmHg 47%
13:00 +22°C° 0 mm 3 mps 758 mmHg 52%
14:00 +22°C° 0 mm 3 mps 758 mmHg 57%
15:00 +21°C° 0 mm 3 mps 757 mmHg 61%
16:00 +21°C° 0 mm 3 mps 757 mmHg 66%
17:00 +20°C° 0 mm 3 mps 757 mmHg 70%
18:00 +20°C° 0 mm 3 mps 756 mmHg 74%
19:00 +19°C° 0 mm 3 mps 756 mmHg 77%
20:00 +19°C° 0 mm 2 mps 757 mmHg 79%
21:00 +18°C° 0 mm 2 mps 757 mmHg 82%
22:00 +18°C° 0.2 mm 2 mps 757 mmHg 83%
23:00 +19°C° 0.2 mm 1 mps 756 mmHg 84%

Tomorrow, 30 September, Wednesday

Time Temperature Precipitation Wind Pressure Humidity
00:00 +17°C° 0.2 mm 0 mps 756 mmHg 85%
01:00 +19°C° 0.6 mm 1 mps 756 mmHg 86%
02:00 +19°C° 0.6 mm 1 mps 755 mmHg 87%
03:00 +19°C° 0.6 mm 1 mps 755 mmHg 88%
04:00 +19°C° 1.1 mm 1 mps 755 mmHg 90%
05:00 +19°C° 1.1 mm 1 mps 755 mmHg 91%
06:00 +19°C° 1.1 mm 1 mps 755 mmHg 93%
07:00 +20°C° 0.3 mm 2 mps 756 mmHg 90%
08:00 +21°C° 0.3 mm 2 mps 756 mmHg 86%
09:00 +24°C° 0.3 mm 2 mps 756 mmHg 83%
10:00 +26°C° 0 mm 3 mps 756 mmHg 77%
11:00 +28°C° 0 mm 3 mps 756 mmHg 71%
12:00 +30°C° 0 mm 3 mps 756 mmHg 65%
13:00 +30°C° 0 mm 2 mps 755 mmHg 62%
14:00 +31°C° 0 mm 2 mps 754 mmHg 59%
15:00 +32°C° 0 mm 2 mps 754 mmHg 56%
16:00 +30°C° 0.2 mm 2 mps 754 mmHg 63%
17:00 +29°C° 0.2 mm 2 mps 753 mmHg 70%
18:00 +27°C° 0.2 mm 2 mps 753 mmHg 77%
19:00 +26°C° 0.1 mm 2 mps 753 mmHg 79%
20:00 +26°C° 0.1 mm 2 mps 753 mmHg 82%
21:00 +25°C° 0.1 mm 2 mps 754 mmHg 85%
22:00 +25°C° 0.5 mm 2 mps 754 mmHg 85%
23:00 +24°C° 0.5 mm 2 mps 753 mmHg 85%

Day after tomorrow, 1 October, Thursday

Time Temperature Precipitation Wind Pressure Humidity
00:00 +24°C° 0.5 mm 1 mps 753 mmHg 85%
01:00 +24°C° 0.3 mm 1 mps 752 mmHg 86%
02:00 +24°C° 0.3 mm 1 mps 752 mmHg 86%
03:00 +23°C° 0.3 mm 1 mps 751 mmHg 87%
04:00 +23°C° 0.3 mm 2 mps 751 mmHg 88%
05:00 +23°C° 0.3 mm 2 mps 751 mmHg 89%
06:00 +22°C° 0.3 mm 3 mps 751 mmHg 90%
07:00 +24°C° 0.1 mm 2 mps 751 mmHg 88%
08:00 +24°C° 0.1 mm 1 mps 752 mmHg 85%
09:00 +23°C° 0.1 mm 0 mps 753 mmHg 83%
10:00 +25°C° 0.1 mm 1 mps 753 mmHg 83%
11:00 +25°C° 0.1 mm 1 mps 753 mmHg 83%
12:00 +25°C° 0.1 mm 2 mps 753 mmHg 84%
13:00 +25°C° 0 mm 2 mps 752 mmHg 83%
14:00 +25°C° 0 mm 2 mps 752 mmHg 81%
15:00 +26°C° 0 mm 2 mps 751 mmHg 80%
16:00 +25°C° 0 mm 2 mps 751 mmHg 80%
17:00 +25°C° 0 mm 3 mps 751 mmHg 80%
18:00 +25°C° 0 mm 3 mps 751 mmHg 80%
19:00 +24°C° 0 mm 3 mps 751 mmHg 82%
20:00 +24°C° 0 mm 3 mps 752 mmHg 84%
21:00 +22°C° 0 mm 4 mps 752 mmHg 85%
22:00 +22°C° 0 mm 3 mps 752 mmHg 87%
23:00 +22°C° 0 mm 3 mps 752 mmHg 88%

2 October, Friday

Time Temperature Precipitation Wind Pressure Humidity
00:00 +21°C° 0 mm 3 mps 752 mmHg 90%
01:00 +21°C° 0.2 mm 3 mps 752 mmHg 91%
02:00 +21°C° 0.2 mm 3 mps 752 mmHg 92%
03:00 +21°C° 0.2 mm 2 mps 752 mmHg 92%
04:00 +21°C° 1.7 mm 2 mps 752 mmHg 93%
05:00 +21°C° 1.7 mm 2 mps 753 mmHg 94%
06:00 +21°C° 1.7 mm 2 mps 753 mmHg 95%
07:00 +21°C° 0.7 mm 2 mps 754 mmHg 94%
08:00 +23°C° 0.7 mm 1 mps 754 mmHg 93%
09:00 +23°C° 0.7 mm 1 mps 755 mmHg 92%
10:00 +21°C° 1.4 mm 2 mps 756 mmHg 92%
11:00 +21°C° 1.4 mm 4 mps 756 mmHg 91%
12:00 +20°C° 1.4 mm 5 mps 757 mmHg 91%
13:00 +19°C° 3.4 mm 5 mps 757 mmHg 91%
14:00 +17°C° 3.4 mm 6 mps 757 mmHg 90%
15:00 +16°C° 3.4 mm 6 mps 758 mmHg 90%
16:00 +16°C° 2.3 mm 6 mps 759 mmHg 89%
17:00 +16°C° 2.3 mm 6 mps 759 mmHg 89%
18:00 +15°C° 2.3 mm 6 mps 760 mmHg 88%
19:00 +15°C° 2.1 mm 6 mps 761 mmHg 88%
20:00 +15°C° 2.1 mm 7 mps 762 mmHg 88%
21:00 +14°C° 2.1 mm 7 mps 763 mmHg 88%
22:00 +14°C° 0.3 mm 6 mps 763 mmHg 86%
23:00 +14°C° 0.3 mm 6 mps 764 mmHg 83%

3 October, Saturday

Time Temperature Precipitation Wind Pressure Humidity
00:00 +14°C° 0.3 mm 5 mps 764 mmHg 81%
01:00 +13°C° 0 mm 5 mps 764 mmHg 81%
02:00 +13°C° 0 mm 5 mps 764 mmHg 81%
03:00 +13°C° 0 mm 4 mps 764 mmHg 81%
04:00 +13°C° 0 mm 5 mps 764 mmHg 80%
05:00 +13°C° 0 mm 5 mps 765 mmHg 79%
06:00 +13°C° 0 mm 5 mps 765 mmHg 78%
07:00 +13°C° 0.5 mm 5 mps 765 mmHg 79%
08:00 +13°C° 0.5 mm 5 mps 765 mmHg 80%
09:00 +13°C° 0.5 mm 5 mps 766 mmHg 81%
10:00 +13°C° 1.1 mm 5 mps 765 mmHg 82%
11:00 +13°C° 1.1 mm 4 mps 765 mmHg 82%
12:00 +13°C° 1.1 mm 4 mps 765 mmHg 83%
13:00 +13°C° 1.5 mm 4 mps 765 mmHg 84%
14:00 +12°C° 1.5 mm 5 mps 765 mmHg 85%
15:00 +12°C° 1.5 mm 5 mps 764 mmHg 86%
16:00 +12°C° 1.9 mm 5 mps 764 mmHg 87%
17:00 +12°C° 1.9 mm 4 mps 765 mmHg 88%
18:00 +12°C° 1.9 mm 4 mps 765 mmHg 88%
19:00 +12°C° 2.3 mm 4 mps 765 mmHg 88%
20:00 +13°C° 2.3 mm 4 mps 765 mmHg 88%
21:00 +13°C° 2.3 mm 4 mps 765 mmHg 88%
22:00 +13°C° 0.1 mm 5 mps 765 mmHg 87%
23:00 +13°C° 0.1 mm 5 mps 765 mmHg 86%

4 October, Sunday

Time Temperature Precipitation Wind Pressure Humidity
00:00 +13°C° 0.1 mm 5 mps 765 mmHg 85%
01:00 +13°C° 0 mm 5 mps 765 mmHg 85%
02:00 +13°C° 0 mm 5 mps 764 mmHg 85%
03:00 +13°C° 0 mm 5 mps 764 mmHg 85%
04:00 +13°C° 0 mm 5 mps 764 mmHg 86%
05:00 +13°C° 0 mm 5 mps 764 mmHg 86%
06:00 +14°C° 0 mm 5 mps 764 mmHg 87%
07:00 +14°C° 0.1 mm 5 mps 765 mmHg 86%
08:00 +14°C° 0.1 mm 5 mps 765 mmHg 85%
09:00 +14°C° 0.1 mm 5 mps 765 mmHg 84%
10:00 +15°C° 0 mm 5 mps 765 mmHg 83%
11:00 +15°C° 0 mm 6 mps 765 mmHg 82%
12:00 +15°C° 0 mm 6 mps 765 mmHg 81%
13:00 +15°C° 0 mm 6 mps 765 mmHg 81%
14:00 +15°C° 0 mm 6 mps 764 mmHg 80%
15:00 +15°C° 0 mm 6 mps 764 mmHg 80%
16:00 +15°C° 0.1 mm 6 mps 763 mmHg 81%
17:00 +15°C° 0.1 mm 6 mps 763 mmHg 81%
18:00 +15°C° 0.1 mm 6 mps 763 mmHg 82%
19:00 +15°C° 0.4 mm 6 mps 763 mmHg 83%
20:00 +15°C° 0.4 mm 6 mps 763 mmHg 85%
21:00 +15°C° 0.4 mm 6 mps 763 mmHg 87%
22:00 +15°C° 0.5 mm 6 mps 763 mmHg 87%
23:00 +15°C° 0.5 mm 6 mps 763 mmHg 87%
Show more